Flag for U.S.A. Weather past 2 weeks in Riverside, California, U.S.A.

Now
64 °F

Clear.


Feels Like: 64 °F
Forecast: 54 / 90 °F
Wind: 3 mph from East

Location: Riverside Municipal Airport

Current Time: Apr 28, 2015 at 12:20:54 AM

Latest Report: Apr 27, 2015 at 11:53 PM


Visibility: 10 mi

Pressure: 29.95 "Hg

Humidity: 35%

Dew point: 36 °F

Location of RiversideLocation

Historic Weather in Riverside — Graph

°F

Riverside temperature yesterday

Maximum temperature yesterday: 88 °F (at 4:53 PM)
Minimum temperature yesterday: 58 °F (at 12:53 AM)
Average temperature yesterday: 75 °F

Past Weeks' High & Low Weather Summary

 TemperatureHumidityPressure
High88 °F (Apr 27, 4:53 PM)93% (Apr 26, 2:53 AM)30.07 "Hg (Apr 26, 2:53 AM)
Low50 °F (Apr 26, 4:53 AM)5% (Apr 15, 5:53 PM)29.76 "Hg (Apr 20, 3:53 PM)
Average65 °F50%29.91 "Hg
* Reported Apr 12 10:53 PM — Apr 27 10:53 PM, Riverside, Weather by CustomWeather, © 2015

Note: Actual official high and low records may vary slightly from our data, if they occured in-between our weather recording intervals... More about our weather records

Advertising

Riverside weather history for previous 24 hours

 ConditionsComfort  
Time TempWeatherWind HumidityBarometerVisibility
10:53 PM
Mon, Apr 27
66 °FClear.No wind32%29.94 "Hg10 mi
9:53 PM70 °FClear.5 mph23%29.93 "Hg10 mi
8:53 PM71 °FClear.8 mph24%29.90 "Hg10 mi
7:53 PM74 °FSunny.9 mph20%29.86 "Hg10 mi
6:53 PM80 °FSunny.13 mph17%29.84 "Hg10 mi
5:53 PM85 °FSunny.8 mph13%29.82 "Hg10 mi
4:53 PM88 °FSunny.10 mph6%29.82 "Hg10 mi
3:53 PM87 °FSunny.7 mph6%29.83 "Hg10 mi
2:53 PM86 °FSunny.12 mph7%29.85 "Hg10 mi
1:53 PM85 °FSunny.14 mph7%29.88 "Hg10 mi
12:53 PM83 °FSunny.15 mph8%29.89 "Hg10 mi
11:53 AM81 °FSunny.14 mph9%29.91 "Hg10 mi
10:53 AM79 °FSunny.14 mph10%29.92 "Hg10 mi
9:53 AM76 °FSunny.12 mph12%29.94 "Hg10 mi
8:53 AM74 °FSunny.12 mph13%29.94 "Hg10 mi
7:53 AM72 °FSunny.9 mph14%29.93 "Hg10 mi
6:53 AM70 °FClear.10 mph16%29.90 "Hg10 mi
5:53 AM70 °FClear.14 mph18%29.87 "Hg10 mi
4:53 AM68 °FClear.6 mph23%29.88 "Hg10 mi
3:53 AM68 °FClear.9 mph26%29.87 "Hg10 mi
2:53 AM67 °FClear.6 mph31%29.87 "Hg10 mi
1:53 AM59 °FClear.3 mph62%29.88 "Hg10 mi
12:53 AM58 °FClear.3 mph67%29.90 "Hg10 mi
Weather by CustomWeather, © 2015

See weather overviewHow to use our weather pages